Hourly Data Report for October 03, 2017

All times are specified in Local Standard Time (LST). Add 1 hour to adjust for Daylight Saving Time where and when it is observed.

CLEARWATER AUTO
BRITISH COLUMBIA

51°39'09.300" N
120°04'56.400" W
438.00 m
1161650
71645
VCW

Download Data

Hourly Data (October 2017)
Hourly Data Report for October 3, 2017
Temp Definition
°C
Dew Point Temp Definition
°C
Rel Hum Definition
%
Wind Dir Definition
10's deg

Wind Spd Definition
km/h
Visibility Definition
km
Stn Press Definition
kPa
Hmdx Definition


Wind Chill Definition


Weather Definition


TIME
00:00 1.1 -1.6 82 33 2   97.46     LegendNANA
01:00 0.6 -2.1 82 1 2   97.53     LegendNANA
02:00 -0.3 -2.8 83 35 1   97.56   -1 LegendNANA
03:00 -1.3 -3.7 83 34 3   97.57   -2 LegendNANA
04:00 -1.7 -4.2 83 0 1   97.58   -2 LegendNANA
05:00 -2.0 -4.3 84 35 3   97.62   -3 LegendNANA
06:00 -2.6 -5.2 83   0   97.66     LegendNANA
07:00 -2.1 -4.5 83 0 1   97.71   -2 LegendNANA
08:00 1.3 -1.7 81 14 3   97.73     LegendNANA
09:00 3.9 -2.0 66 14 3   97.71     LegendNANA
10:00 6.7 -2.1 53 13 4   97.65     LegendNANA
11:00 9.1 -4.1 39 8 3   97.56     LegendNANA
12:00 11.3 -4.0 34 17 3   97.50     LegendNANA
13:00 13.0 -3.5 32 22 3   97.43     LegendNANA
14:00 14.0 -3.1 31 10 3   97.34     LegendNANA
15:00 14.4 -5.6 25 21 4   97.28     LegendNANA
16:00 14.7 -5.9 24 26 2   97.22     LegendNANA
17:00 10.0 -0.8 47 34 4   97.21     LegendNANA
18:00 5.7 0.1 67   0   97.25     LegendNANA
19:00 3.5 -0.7 74 1 1   97.28     LegendNANA
20:00 2.6 -1.3 76 34 3   97.31     LegendNANA
21:00 1.4 -1.6 80 36 3   97.35     LegendNANA
22:00 1.5 -1.8 79 36 4   97.35     LegendNANA
23:00 -0.4 -3.3 81 34 2   97.39   -1 LegendNANA

Notes on Data Quality.

Legend

  • E = Estimated
  • M = Missing
  • NA = Not Available
  • ‡ = Partner data that is not subject to review by the National Climate Archives
Date modified: